INMARSAT 5-F3

Last updated on Wed Jul 02 2025 00:02:46 GMT+0000 (Coordinated Universal Time)

1 40882U 15042A 25182.60703942 .00000054 00000+0 00000+0 0 9990 2 40882 0.0246 94.5262 0000644 268.2785 315.2152 1.00275064 36043
UTC large
Height (km)
Speed (km/s)
/
Latitude / Longitude
Inclination (degrees)
Orbital Period (minutes)
Azimuth
Elevation
Range (km)
Doppler Factor

Next 0 passes for location: London (51.5072 / 0.1276)

Sorry there are no passes over London.